Sharm El Sheikh, Egypt

4:12 PM EET on January 17, 2018 (GMT +0200)
Sharm El Sheikh

Weather History for HESH - October, 2013

Change the Weather History Date:

Wednesday, October 2, 2013

  Actual Average Record
Temperature  
Mean Temperature 84 °F -  
Max Temperature 95 °F 88 °F - ()
Min Temperature 73 °F 72 °F - ()
Cooling Degree Days 19    
Growing Degree Days 34 (Base 50)    
Moisture  
Dew Point 61 °F    
Average Humidity 49    
Maximum Humidity 65    
Minimum Humidity 23    
Precipitation  
Precipitation 0.00 in 0.00 in - ()
Sea Level Pressure  
Sea Level Pressure 29.76 in    
Wind  
Wind Speed 5 mph ()    
Max Wind Speed 10 mph    
Max Gust Speed -    
T = Trace of Precipitation, MM = Missing Value Source: Averaged Metar Reports

Daily Weather History Graph

Daily Weather History Graph

Search for Another Location

Airport or City:

Trip Planner

Search our weather history database for the weather conditions in past years. The results will help you decide how hot, cold, wet, or windy it might be!

Date:

Astronomy

Oct. 02, 2013 Rise Set
Actual Time 5:35 AM EET 5:27 PM EET
Civil Twilight 5:12 AM EET 5:50 PM EET
Nautical Twilight 4:45 AM EET 6:17 PM EET
Astronomical Twilight 4:17 AM EET 6:45 PM EET
Moon 3:00 AM EET (10/2) 3:43 PM EET (10/2)
Length of Visible Light 12h 38m
Length of Day
11h 51m
Waning Crescent, 7% of the Moon is Illuminated
Oct 2
Waning Crescent
Oct 5
New
Oct 12
First Quarter
Oct 19
Full
Oct 27
Last Quarter

Hourly Weather History & Observations

Time (EET) Temp. Heat Index Dew Point Humidity Pressure Visibility Wind Dir Wind Speed Gust Speed Precip Events Conditions
12:00 AM 77.0 °F - 60.8 °F 57% 29.74 in - North 4.6 mph - N/A   Clear
1:00 AM 77.0 °F - 64.4 °F 65% 29.74 in - North 4.6 mph - N/A   Clear
2:00 AM 77.0 °F - 62.6 °F 61% 29.74 in - North 8.1 mph - N/A   Clear
3:00 AM 75.2 °F - 60.8 °F 61% 29.74 in - North 5.8 mph - N/A   Clear
4:00 AM 75.2 °F - 62.6 °F 65% 29.74 in - NNW 6.9 mph - N/A   Clear
5:00 AM 75.2 °F - 60.8 °F 61% 29.74 in - NNW 4.6 mph - N/A   Clear
6:00 AM 73.4 °F - 60.8 °F 65% 29.77 in - North 3.5 mph - N/A   Clear
7:00 AM 78.8 °F - 66.2 °F 65% 29.77 in - North 3.5 mph - N/A   Clear
8:00 AM 82.4 °F 84.6 °F 66.2 °F 58% 29.80 in - NNE 4.6 mph - N/A   Clear
9:00 AM 86.0 °F 84.5 °F 55.4 °F 35% 29.80 in - NNE 5.8 mph - N/A   Clear
10:00 AM 91.4 °F 90.7 °F 59.0 °F 34% 29.80 in - ENE 8.1 mph - N/A   Clear
11:00 AM 95.0 °F 93.7 °F 57.2 °F 28% 29.80 in - East 5.8 mph - N/A   Clear
12:00 PM 95.0 °F - 51.8 °F 23% 29.77 in - SE 6.9 mph - N/A   Clear
1:00 PM 91.4 °F 91.4 °F 60.8 °F 36% 29.77 in - South 10.4 mph - N/A   Clear
2:00 PM 91.4 °F 92.1 °F 62.6 °F 38% 29.74 in - South 10.4 mph - N/A   Clear
3:00 PM 89.6 °F 89.5 °F 60.8 °F 38% 29.74 in - South 8.1 mph - N/A   Clear
4:00 PM 89.6 °F 88.1 °F 57.2 °F 33% 29.74 in - South 5.8 mph - N/A   Clear
5:00 PM 86.0 °F 86.6 °F 62.6 °F 45% 29.74 in - South 5.8 mph - N/A   Clear
6:00 PM 82.4 °F 83.9 °F 64.4 °F 54% 29.74 in - SSW 2.3 mph - N/A   Clear
7:00 PM 82.4 °F 83.9 °F 64.4 °F 54% 29.74 in - Calm Calm - N/A   Clear
8:00 PM 80.6 °F 81.8 °F 62.6 °F 54% 29.77 in - Calm Calm - N/A   Clear
9:00 PM 80.6 °F 82.3 °F 64.4 °F 58% 29.80 in - South 3.5 mph - N/A   Clear
10:00 PM 77.0 °F - 62.6 °F 61% 29.80 in - Calm Calm - N/A   Clear
11:00 PM 77.0 °F - 44.6 °F 32% 29.80 in - WNW 2.3 mph - N/A   Clear